| time (UTC) | temp F | wind direction | speed knots | gust knots | rain 1hr in | rain 24hr in | rain mn in | humidity % | barometer mb |
| 20260504040013 | 60 | 224 | 0.9 | 5.2 | 0.00 | 0.00 | 0.00 | 63 | 1006.4 |
| 20260504035013 | 60 | 210 | 2.6 | 5.2 | 0.00 | 0.00 | 0.00 | 62 | 1006.4 |
| 20260504034013 | 60 | 235 | 0.9 | 6.1 | 0.00 | 0.00 | 0.00 | 62 | 1006.6 |
| 20260504033013 | 61 | 228 | 1.7 | 4.3 | 0.00 | 0.00 | 0.00 | 62 | 1006.7 |
| 20260504032012 | 61 | 235 | 0.9 | 2.6 | 0.00 | 0.00 | 0.00 | 61 | 1006.9 |
| 20260504031011 | 61 | 218 | 0.9 | 4.3 | 0.00 | 0.00 | 0.00 | 61 | 1006.8 |
| 20260504030012 | 61 | 218 | 0.9 | 4.3 | 0.00 | 0.00 | 0.00 | 61 | 1006.9 |
| 20260504025011 | 62 | 248 | 1.7 | 4.3 | 0.00 | 0.00 | 0.00 | 60 | 1006.9 |
| 20260504024011 | 62 | 203 | 0.0 | 5.2 | 0.00 | 0.00 | 0.00 | 59 | 1006.9 |
| 20260504023011 | 62 | 255 | 0.9 | 3.5 | 0.00 | 0.00 | 0.00 | 58 | 1006.8 |
| 20260504022010 | 63 | 253 | 0.0 | 3.5 | 0.00 | 0.00 | 0.00 | 58 | 1006.8 |
| 20260504021010 | 63 | 229 | 0.9 | 3.5 | 0.00 | 0.00 | 0.00 | 57 | 1006.7 |
| 20260504015009 | 63 | 243 | 3.5 | 6.1 | 0.00 | 0.00 | 0.00 | 56 | 1006.6 |
| 20260504014010 | 63 | 221 | 0.9 | 3.5 | 0.00 | 0.00 | 0.00 | 55 | 1006.4 |
| 20260504013009 | 64 | 225 | 0.9 | 2.6 | 0.00 | 0.00 | 0.00 | 54 | 1006.3 |
| 20260504012009 | 64 | 238 | 1.7 | 2.6 | 0.00 | 0.00 | 0.00 | 53 | 1006.2 |
| 20260504011008 | 65 | 240 | 0.0 | 2.6 | 0.00 | 0.00 | 0.00 | 52 | 1006.0 |
| 20260504010038 | 66 | 232 | 1.7 | 2.6 | 0.00 | 0.00 | 0.00 | 50 | 1006.2 |
| 20260504005008 | 67 | 243 | 1.7 | 6.1 | 0.00 | 0.00 | 0.00 | 49 | 1006.2 |
| 20260504004008 | 67 | 249 | 0.0 | 9.6 | 0.00 | 0.00 | 0.00 | 48 | 1006.2 |
| 20260504003037 | 68 | 264 | 0.9 | 7.8 | 0.00 | 0.00 | 0.00 | 46 | 1006.2 |
| 20260504002007 | 68 | 274 | 0.9 | 7.0 | 0.00 | 0.00 | 0.00 | 46 | 1006.2 |
| 20260504001006 | 68 | 260 | 1.7 | 7.8 | 0.00 | 0.00 | 0.00 | 45 | 1006.2 |
| 20260504000037 | 69 | 255 | 7.8 | 9.6 | 0.00 | 0.00 | 0.00 | 45 | 1006.2 |
| 20260503235006 | 69 | 235 | 2.6 | 8.7 | 0.00 | 0.00 | 0.00 | 44 | 1006.1 |
| 20260503234006 | 69 | 262 | 0.9 | 8.7 | 0.00 | 0.00 | 0.00 | 44 | 1006.1 |
| 20260503233006 | 69 | 256 | 1.7 | 9.6 | 0.00 | 0.00 | 0.00 | 43 | 1006.1 |
| 20260503232036 | 69 | 276 | 6.1 | 10.4 | 0.00 | 0.00 | 0.00 | 43 | 1006.2 |
| 20260503231005 | 69 | 210 | 7.8 | 15.6 | 0.00 | 0.00 | 0.00 | 43 | 1006.3 |
| 20260503230035 | 70 | 107 | 1.7 | 12.2 | 0.00 | 0.00 | 0.00 | 43 | 1006.4 |
| 20260503225035 | 69 | 181 | 7.8 | 11.3 | 0.00 | 0.00 | 0.00 | 43 | 1006.4 |
| 20260503224034 | 69 | 226 | 6.1 | 11.3 | 0.00 | 0.00 | 0.00 | 43 | 1006.6 |
| 20260503222035 | 69 | 290 | 5.2 | 14.8 | 0.00 | 0.00 | 0.00 | 42 | 1006.8 |
| 20260503221033 | 69 | 226 | 6.1 | 13.0 | 0.00 | 0.00 | 0.00 | 42 | 1007.1 |
| 20260503220034 | 69 | 146 | 7.0 | 14.8 | 0.00 | 0.00 | 0.00 | 42 | 1007.0 |
| 20260503215034 | 69 | 181 | 4.3 | 15.6 | 0.00 | 0.00 | 0.00 | 41 | 1007.1 |
| 20260503214033 | 68 | 191 | 7.0 | 22.6 | 0.00 | 0.00 | 0.00 | 41 | 1007.0 |
| 20260503213032 | 69 | 280 | 5.2 | 13.0 | 0.00 | 0.00 | 0.00 | 41 | 1007.4 |
| 20260503212032 | 68 | 226 | 7.8 | 13.9 | 0.00 | 0.00 | 0.00 | 40 | 1007.4 |
| 20260503211032 | 68 | 248 | 5.2 | 13.9 | 0.00 | 0.00 | 0.00 | 41 | 1007.6 |
| 20260503210032 | 68 | 245 | 13.0 | 16.5 | 0.00 | 0.00 | 0.00 | 40 | 1007.7 |
| 20260503203030 | 67 | 253 | 5.2 | 16.5 | 0.00 | 0.00 | 0.00 | 44 | 1008.4 |
| 20260503202030 | 67 | 221 | 7.0 | 13.0 | 0.00 | 0.00 | 0.00 | 44 | 1008.7 |
| 20260503201030 | 65 | 197 | 7.8 | 15.6 | 0.00 | 0.00 | 0.00 | 45 | 1008.9 |
| 20260503200030 | 64 | 203 | 8.7 | 13.0 | 0.00 | 0.00 | 0.00 | 50 | 1009.1 |
| 20260503195030 | 64 | 338 | 8.7 | 14.8 | 0.00 | 0.00 | 0.00 | 49 | 1009.1 |
| 20260503194029 | 63 | 218 | 7.0 | 16.5 | 0.00 | 0.00 | 0.00 | 51 | 1009.3 |
| 20260503193030 | 63 | 210 | 7.0 | 12.2 | 0.00 | 0.00 | 0.00 | 51 | 1009.2 |
| 20260503192028 | 61 | 224 | 1.7 | 13.9 | 0.00 | 0.00 | 0.00 | 52 | 1009.4 |
| 20260503191029 | 62 | 238 | 7.0 | 20.0 | 0.00 | 0.00 | 0.00 | 50 | 1009.5 |
| 20260503190029 | 61 | 214 | 8.7 | 14.8 | 0.00 | 0.00 | 0.00 | 52 | 1009.6 |
| 20260503185027 | 59 | 253 | 6.1 | 20.0 | 0.00 | 0.00 | 0.00 | 54 | 1009.8 |
| 20260503184027 | 59 | 221 | 5.2 | 13.9 | 0.00 | 0.00 | 0.00 | 54 | 1010.0 |
| 20260503182026 | 58 | 222 | 8.7 | 13.9 | 0.00 | 0.00 | 0.00 | 58 | 1010.3 |
| 20260503180026 | 56 | 210 | 7.8 | 15.6 | 0.00 | 0.00 | 0.00 | 60 | 1011.1 |
| 20260503175027 | 56 | 218 | 8.7 | 20.0 | 0.00 | 0.00 | 0.00 | 60 | 1011.4 |
| 20260503173025 | 55 | 260 | 1.7 | 14.8 | 0.00 | 0.00 | 0.00 | 63 | 1012.1 |
| 20260503172026 | 54 | 246 | 3.5 | 17.4 | 0.00 | 0.00 | 0.00 | 66 | 1012.3 |
| 20260503171025 | 54 | 212 | 1.7 | 14.8 | 0.00 | 0.00 | 0.00 | 67 | 1012.2 |
| 20260503131018 | 52 | 281 | 2.6 | 9.6 | 0.00 | 0.00 | 0.00 | 56 | 1014.3 |
| 20260503081009 | 46 | 274 | 2.6 | 4.3 | 0.00 | 0.00 | 0.00 | 59 | 1014.7 |
| 20260503072008 | 46 | 271 | 0.9 | 2.6 | 0.00 | 0.00 | 0.00 | 58 | 1014.9 |
| 20260503071008 | 46 | 273 | 0.9 | 2.6 | 0.00 | 0.00 | 0.00 | 57 | 1015.0 |
| 20260503054005 | 46 | 262 | 0.9 | 1.7 | 0.00 | 0.00 | 0.00 | 59 | 1015.7 |
| 20260503053005 | 47 | 262 | 0.0 | 3.5 | 0.00 | 0.00 | 0.00 | 59 | 1015.8 |
| 20260503052035 | 47 | 260 | 0.9 | 2.6 | 0.00 | 0.00 | 0.00 | 59 | 1015.9 |
| 20260503051035 | 47 | 259 | 0.9 | 2.6 | 0.00 | 0.00 | 0.00 | 59 | 1015.9 |
| 20260503050034 | 47 | 257 | 0.9 | 2.6 | 0.00 | 0.00 | 0.00 | 59 | 1015.9 |
| 20260503045034 | 47 | 257 | 0.9 | 2.6 | 0.00 | 0.00 | 0.00 | 58 | 1016.0 |
| 20260503044034 | 47 | 257 | 0.0 | 3.5 | 0.00 | 0.00 | 0.00 | 59 | 1016.0 |
| 20260503043034 | 47 | 259 | 0.9 | 2.6 | 0.00 | 0.00 | 0.00 | 60 | 1016.0 |
| 20260503042033 | 47 | 259 | 0.0 | 2.6 | 0.00 | 0.00 | 0.00 | 59 | 1016.0 |
| 20260503041032 | 47 | 257 | 0.0 | 1.7 | 0.00 | 0.00 | 0.00 | 60 | 1016.1 |